STARLINK-2682, 48440

Orbit data source: Space-Track

STARLINK-2682, 48440 is a payload satellite owned by SpaceX/Seattle (US) in LEO that was launched on Sun, 09 May 2021 UTC via an FALCON 9 launch vehicle from the Air Force Eastern Test Range (AFETR). Payload-class satellites include a variety of spacecraft equipped with specific instruments for various scientific and technological missions. These include communications satellites like Starlink; space stations such as the ISS; scientific satellites like the Hubble; Earth observation satellites from companies like Planet Labs, Umbra, and HawkEye 360; GPS; miniature CubeSats for education and research; and military/defense satellites.

Loading next visibility...
Identifier
48440, 2021-040N
Orbit
LEO
Country
Flag of USUS
Related business
Manufacturer
SpaceX/Seattle
Mission
Operational Commercial Communications
Bus & Motor
STARLINK, Unknown motor
Mass
260 kg wet, ~248 kg dry
Launch date (UTC)
2021-05-09 (5 years ago)
Launch vehicle
FALCON 9
Launch site
Air Force Eastern Test Range (AFETR)
Object type
Payload
Rocket body
Debris
Shape & HBR
Box + 1 Pan, 10.1 m
Radar Cross Section
13.562 m², Large (>1 m²)

Expand to show TLE details & history
Last TLE update: 2 days ago

TLE from 2 days ago
0 STARLINK-2682
1 48440U 21040N   26171.39489435  .00002712  00000-0  99095-4 0  9997
2 48440  53.1605  60.3151 0001327  95.2166 264.8987 15.31709731282418
Epoch: 2026-06-20T09:28Z
TLE epoch observation values (Epoch: 2026-06-20T09:28:38.871Z)
Latitude
-0.00003°
Longitude
9.54298°
Altitude
471.692 km
Speed
7.631 km/s
True Right ascension
04h 01m 15s
True Declination
0° 00' 00"
Sunlit
Object was in daylight at epoch
Visualization orbit readout
Latitude
Unknown
Longitude
Unknown
Altitude
Unknown
Speed
Unknown
Apparent Right ascension
Unknown
Apparent Declination
Unknown
Sunlit
N/A
Visualization observer readout
Local Sidereal Time
21:27:51
Azimuth
Unknown
Elevation
Unknown
Doppler factor
Unknown
Orbital elements
Apogee altitude
471.876 km
Perigee altitude
470.059 km
Semi-major axis
6,849.105 km
Eccentricity
0.00013
Inclination
53.1605°
RAAN
60.3151°
Arg. of periapsis
95.2166°
True anomaly
264.88355°
Mean anomaly
264.8987°
Eccentric anomaly
264.89113°
Mean motion
3.82906 °/min
Orbital period
94.02 mins
BSTAR
0.000099095
Loading maneuver chart data...
Computing Atmospheric mass density...

Documentation

Showing up to 5 results
|